CW3007 Weather Reports


Display with metric or nautical units.
time (UTC)temp
F
wind
direction
speed
MPH
gust
MPH
rain 1hr
in
rain 24hr
in
rain mn
in
humidity
%
barometer
mb
20260507232629 66 25 3.0 7.0 0.00 0.00 0.00 66 1014.4
20260507231628 66 15 4.0 8.0 0.00 0.00 0.00 65 1014.5
20260507230629 66 10 5.0 9.0 0.00 0.00 0.00 66 1014.9
20260507225628 67 349 3.0 9.0 0.00 0.00 0.00 66 1014.7
20260507224628 67 23 3.0 6.0 0.00 0.00 0.00 66 1014.5
20260507222629 67 350 4.0 10.0 0.00 0.00 0.00 65 1015.0
20260507221629 67 348 4.0 10.0 0.00 0.00 0.00 65 1015.4
20260507215628 67 36 4.0 10.0 0.00 0.00 0.00 64 1015.5
20260507214628 67 331 9.0 9.0 0.00 0.00 0.00 65 1015.8
20260507213628 66 34 8.0 11.0 0.00 0.00 0.00 64 1015.7
20260507212628 66 26 6.0 9.0 0.00 0.00 0.00 67 1015.5
20260507211628 66 20 5.0 9.0 0.00 0.00 0.00 67 1014.8
20260507210628 66 28 6.0 10.0 0.00 0.00 0.00 67 1015.4
20260507205628 66 33 4.0 11.0 0.00 0.00 0.00 67 1015.8
20260507204628 66 34 4.0 10.0 0.00 0.00 0.00 67 1016.1
20260507201628 65 61 2.0 11.0 0.00 0.00 0.00 68 1016.0
20260507200629 65 27 8.0 10.0 0.00 0.00 0.00 68 1015.9
20260507195628 64 349 4.0 10.0 0.00 0.00 0.00 69 1016.4
20260507194628 64 13 3.0 8.0 0.00 0.00 0.00 69 1016.7
20260507193628 64 24 6.0 8.0 0.00 0.00 0.00 70 1016.5
20260507191628 64 19 7.0 10.0 0.00 0.00 0.00 70 1016.9
20260507190628 63 58 4.0 14.0 0.00 0.00 0.00 70 1016.7
20260507185628 64 77 2.0 11.0 0.00 0.00 0.00 70 1016.6
20260507184628 64 37 3.0 14.0 0.00 0.00 0.00 69 1017.1
20260507182628 63 28 6.0 13.0 0.00 0.00 0.00 69 1016.7
20260507181628 63 25 9.0 13.0 0.00 0.00 0.00 71 1017.0
20260507180628 64 28 4.0 12.0 0.00 0.00 0.00 69 1017.6
20260507175628 64 53 5.0 15.0 0.00 0.00 0.00 70 1016.9
20260507173628 63 17 10.0 13.0 0.00 0.00 0.00 72 1017.1
20260507172629 62 355 9.0 11.0 0.00 0.00 0.00 73 1017.1
20260507171628 62 10 4.0 9.0 0.00 0.00 0.00 76 1016.9
20260507170628 61 355 5.0 10.0 0.00 0.00 0.00 75 1016.7
20260507165628 61 340 6.0 12.0 0.00 0.00 0.00 75 1017.2
20260507164628 61 34 5.0 10.0 0.00 0.00 0.00 76 1017.5
20260507163628 60 336 5.0 8.0 0.00 0.00 0.00 76 1018.0
20260507162628 60 346 2.0 6.0 0.00 0.00 0.00 76 1019.2
20260507161628 60 305 4.0 11.0 0.00 0.00 0.00 76 1018.4
20260507160628 60 319 2.0 6.0 0.00 0.00 0.00 76 1018.7
20260507155628 60 342 4.0 9.0 0.00 0.00 0.00 76 1018.6
20260507154628 60 32 2.0 9.0 0.00 0.00 0.00 77 1018.1
20260507152628 59 350 8.0 11.0 0.00 0.00 0.00 77 1018.5
20260507151628 59 355 3.0 10.0 0.00 0.00 0.00 78 1018.2
20260507150628 59 327 3.0 9.0 0.00 0.00 0.00 79 1018.0
20260507145628 59 340 4.0 12.0 0.00 0.00 0.00 79 1018.1
20260507144628 59 360 8.0 15.0 0.00 0.00 0.00 80 1018.0
20260507143628 59 331 8.0 12.0 0.00 0.00 0.00 80 1017.7
20260507141628 59 36 7.0 13.0 0.00 0.00 0.00 80 1017.6
20260507140628 59 310 4.0 15.0 0.00 0.00 0.00 80 1017.6
20260507135628 59 36 7.0 17.0 0.00 0.00 0.00 80 1017.4
20260507134628 59 348 15.0 18.0 0.00 0.00 0.00 80 1017.1
20260507132628 60 34 6.0 14.0 0.00 0.00 0.00 83 1017.3
20260507131629 59 355 6.0 13.0 0.00 0.00 0.00 83 1017.6
20260507124628 59 340 5.0 12.0 0.00 0.00 0.00 85 1017.4
20260507122628 59 307 5.0 14.0 0.00 0.00 0.00 85 1017.3
20260507121628 59 351 5.0 14.0 0.00 0.00 0.00 85 1016.6
20260507120628 59 360 5.0 13.0 0.00 0.00 0.00 85 1016.3
20260507115628 59 355 10.0 13.0 0.00 0.00 0.00 85 1016.2
20260507114628 59 343 6.0 15.0 0.00 0.00 0.00 85 1016.3
20260507112628 59 325 3.0 12.0 0.00 0.00 0.00 85 1016.4
20260507111628 59 348 10.0 13.0 0.00 0.00 0.00 85 1016.2
20260507105628 59 319 9.0 17.0 0.00 0.00 0.00 85 1016.3
20260507104628 59 303 12.0 16.0 0.00 0.00 0.00 85 1016.4
20260507103628 59 307 5.0 16.0 0.00 0.00 0.00 84 1015.2
20260507102628 59 355 4.0 13.0 0.00 0.00 0.00 84 1015.7
20260507101628 59 13 4.0 13.0 0.00 0.00 0.00 84 1016.0
20260507100628 59 344 10.0 10.0 0.00 0.00 0.00 84 1015.7
20260507094628 59 327 6.0 10.0 0.00 0.00 0.00 83 1016.0
20260507093628 59 331 2.0 10.0 0.00 0.00 0.00 83 1015.5
20260507092628 59 346 4.0 8.0 0.00 0.00 0.00 83 1015.7
20260507090628 59 14 4.0 11.0 0.00 0.00 0.00 83 1015.2
20260507084628 59 347 3.0 9.0 0.00 0.00 0.00 83 1015.0
20260507083628 59 22 5.0 9.0 0.00 0.00 0.00 83 1014.8
20260507082628 60 32 5.0 10.0 0.00 0.00 0.00 82 1014.6
20260507081628 60 22 5.0 8.0 0.00 0.00 0.00 82 1014.8
20260507080628 60 12 5.0 10.0 0.00 0.00 0.00 82 1014.6
20260507075628 60 342 6.0 8.0 0.00 0.00 0.00 82 1014.1
20260507074628 60 30 4.0 6.0 0.00 0.00 0.00 82 1014.3
20260507073628 60 13 4.0 11.0 0.00 0.00 0.00 82 1014.1
20260507072628 60 52 6.0 9.0 0.00 0.00 0.00 81 1014.2
20260507071628 60 20 2.0 6.0 0.00 0.00 0.00 81 1014.4
20260507070628 60 22 4.0 10.0 0.00 0.00 0.00 81 1014.3
20260507065627 60 15 8.0 12.0 0.00 0.00 0.00 80 1014.4
20260507064628 61 30 9.0 10.0 0.00 0.00 0.00 80 1013.6
20260507063628 61 38 5.0 10.0 0.00 0.00 0.00 79 1014.2
20260507062628 61 355 9.0 13.0 0.00 0.00 0.00 79 1014.2
20260507060627 61 5 6.0 8.0 0.00 0.00 0.00 79 1014.7
20260507053628 62 37 6.0 9.0 0.00 0.00 0.00 79 1014.0
20260507052628 62 355 6.0 11.0 0.00 0.00 0.00 78 1014.0
20260507051627 62 18 9.0 10.0 0.00 0.00 0.00 78 1014.0
20260507050629 62 20 8.0 13.0 0.00 0.00 0.00 78 1014.2
20260507044628 62 340 10.0 13.0 0.00 0.00 0.01 78 1014.3
20260507043629 62 40 5.0 9.0 0.00 0.00 0.01 79 1014.3
20260507042629 62 331 6.0 12.0 0.00 0.00 0.01 78 1014.2
20260507041628 62 19 4.0 11.0 0.00 0.00 0.01 78 1014.3
20260507040628 62 355 5.0 10.0 0.00 0.00 0.01 78 1014.3
20260507035628 62 5 2.0 11.0 0.00 0.00 0.01 78 1014.1
20260507033629 62 9 5.0 12.0 0.00 0.00 0.01 78 1014.1
20260507032628 62 34 6.0 9.0 0.00 0.00 0.01 79 1014.1
20260507031628 62 40 2.0 12.0 0.00 0.00 0.01 79 1013.7
20260507025628 62 338 5.0 10.0 0.00 0.00 0.01 79 1013.7
20260507024628 62 333 5.0 8.0 0.00 0.00 0.01 79 1014.0
20260507023628 62 355 3.0 9.0 0.00 0.00 0.01 79 1013.6
20260507022628 62 334 6.0 14.0 0.00 0.00 0.01 79 1013.0
20260507021627 62 13 7.0 10.0 0.00 0.00 0.01 79 1013.2
20260507020628 62 319 4.0 10.0 0.00 0.00 0.01 79 1013.3
20260507015629 62 344 2.0 10.0 0.00 0.00 0.01 79 1012.9
20260507014629 62 360 3.0 9.0 0.00 0.00 0.01 79 1012.5
20260507013629 62 318 3.0 8.0 0.00 0.00 0.01 79 1012.3
20260507012628 62 325 2.0 8.0 0.00 0.00 0.01 78 1012.1
20260507011628 63 355 4.0 6.0 0.00 0.00 0.01 78 1012.2
20260507010628 63 350 4.0 8.0 0.00 0.00 0.01 78 1011.9
20260507005628 63 13 5.0 9.0 0.00 0.00 0.01 78 1011.7
20260507004628 63 319 4.0 9.0 0.00 0.00 0.01 78 1011.6
20260507003629 63 315 3.0 8.0 0.00 0.00 0.01 78 1011.4
20260507001628 63 331 1.0 9.0 0.00 0.00 0.01 78 1011.4
20260506235628 63 314 4.0 10.0 0.00 0.00 0.01 78 1011.5